www.pogodaiklimat.ru

Погода и климат >> Архив погоды >> Россия >> Хабаровский край >> Георгиевка


ПОГОДА в Георгиевке

  • Прогноз погоды в Георгиевке
  • Монитор погоды в Георгиевке
  • Климат города

АРХИВ ПОГОДЫ в Георгиевке

Время (UTC), дата Ветер
(напр.,м/с)
 
Видим.   Явления Облачность Т
(С)
Тd
(С)
f
(%)
Тe
(С)
Тes
(С)
Комфортность P
(гПа)
Po
(гПа)
Тmin
(С)
Tmax
(С)
R
(мм)
R24
(мм)
S
(см)
21 20.06 СЗ 1 4000 м слабый дождь 10 баллов +14.9 +14.3 96 +15 +15 1008.3 1000.0 +14.4 6
00 21.06 В 1 4000 м слабый дождь 10 баллов +16.7 +15.6 93 +18 +18 1008.2 1000.0
03 21.06 С 1 20 км 10/10 600 м
[Cb cap]
+19.9 +16.3 80 +23 +23 комфорт 1006.5 998.4
06 21.06 В 1 20 км 8/8 600 м
[Cb cap]
+22.4 +17.0 72 +27 +30 душно 1004.7 996.7
09 21.06 штиль 0 4000 м слабый ливневой дождь 9 баллов +20.4 +18.7 90 +24 +24 комфорт 1005.4 997.3 +22.7 8
12 21.06 З 1 4000 м дымка 7 баллов +17.3 +16.7 96 +18 +18 1005.5 997.3
15 21.06 штиль 0 4000 м дымка 3/3 600 м
[Cb cap]
+15.1 +14.5 96 +15 +15 1004.1 995.8
18 21.06 штиль 0 4000 м дымка ясно +14.2 +13.7 97 +14 +14 1004.2 995.9
21 21.06 штиль 0 500 м туман 10 баллов +16.3 +15.8 97 +16 +16 1005.5 997.3 +14.0 0.0
00 22.06 ЮЗ 1 20 км 7 баллов +20.0 +17.8 87 +24 +28 комфорт 1005.4 997.3
03 22.06 З 2 20 км 6/6 600 м
[Cb cap]
+23.7 +16.8 65 +27 +35 жарко 1004.0 996.0
06 22.06 З 2 20 км 4/3 600 м
[Cu hum Ci fib]
+25.2 +16.9 60 +29 +37 душно 1003.7 995.7
09 22.06 З 2 20 км 7 баллов +24.1 +17.1 65 +28 +28 душно 1004.0 996.0 +25.6
12 22.06 штиль 0 10 км 10/10 600 м
[Cb cap]
+19.0 +17.8 93 +20 +20 1004.5 996.4
15 22.06 штиль 0 10 км 3/3 600 м
[Sc]
+16.6 +15.9 96 +16 +16 1004.8 996.6
18 22.06 штиль 0 10 км 8/0
[Ac lent]
+14.5 +13.9 96 +14 +14 1004.2 996.0
21 22.06 В 1 20 км 10 баллов +16.5 +15.9 96 +17 +17 1005.5 997.3 +14.4
00 23.06 Ю 2 20 км 9 баллов +20.0 +17.6 86 +24 +25 комфорт 1004.1 996.0
03 23.06 ЮЗ 2 20 км 9/9 600 м
[Cb cap]
+24.8 +18.1 66 +29 +31 душно 1002.4 994.5
06 23.06 В 2 20 км 9/9 600 м
[Cb cap]
+25.5 +19.6 70 +31 +32 очень
душно
1001.2 993.3
09 23.06 В 1 20 км 10 баллов +23.5 +19.6 79 +29 +29 душно 1001.3 993.3 +26.1 11
12 23.06 В 3 10 км 10 баллов +20.2 +18.5 90 +24 +24 комфорт 1002.8 994.7
15 23.06 С 2 10 км 10/10 600 м
[Cb cap]
+18.0 +16.6 92 +19 +19 1002.6 994.5
18 23.06 СВ 3 10 км 8/8 600 м
[Cb cap]
+14.8 +12.7 87 +14 +14 1004.2 995.9
21 23.06 СВ 4 20 км 7 баллов +13.0 +9.4 79 +11 +12 1005.6 997.3 +13.0 0.0
00 24.06 СВ 4 20 км 2 балла +16.0 +9.0 63 +15 +22 1007.0 998.7
03 24.06 С 4
{11}
20 км 8/5 600 м
[Cb cap Ac lent]
+18.2 +9.2 56 +18 +21 1005.6 997.4
06 24.06 С 5
{11}
20 км 6/4 600 м
[Sc Ac lent]
+17.4 +8.9 57 +17 +20 1005.4 997.2
09 24.06 СВ 4 20 км 4 балла +16.7 +7.9 56 +16 +17 1006.9 998.7
12 24.06 СВ 2 10 км 1 балл +12.3 +7.0 70 +11 +11 1009.7 1001.3
15 24.06 С 3 10 км ясно +9.5 +6.4 81 +7 +7 1008.5 1000.0
18 24.06 СВ 3 10 км ясно +9.5 +7.0 84 +7 +7 1008.2 999.7
21 24.06 СВ 4 20 км 7 баллов +9.7 +7.5 86 +7 +7 1009.8 1001.3 +8.9
00 25.06 С 3 20 км 3/0
[Ac cast]
+15.1 +9.1 67 +14 +22 1009.2 1000.9
03 25.06 С 2 20 км 8/8 600 м
[Cb cap]
+18.1 +8.7 54 +19 +22 1008.1 999.9
06 25.06 СВ 2 20 км 6/6 600 м
[Cb cap]
+20.7 +9.2 48 +23 +28 комфорт 1006.9 998.8
09 25.06 С 2 20 км 2 балла +20.6 +8.9 47 +23 +24 комфорт 1008.1 1000.0 +21.4
12 25.06 штиль 0 10 км 1/1 600 м
[Sc diur, vesp]
+12.5 +10.7 89 +12 +12 1007.2 998.9
15 25.06 штиль 0 10 км ясно +9.8 +9.0 95 +9 +9 1007.6 999.1
18 25.06 штиль 0 10 км ясно +7.6 +7.1 97 +7 +7 1007.3 998.8
21 25.06 штиль 0 20 км ясно +11.4 +10.1 92 +11 +13 1008.4 1000.0 +6.6
00 26.06 ЮЗ 1 20 км 8/0
[Ac As Ci]
+18.2 +12.3 68 +20 +28 1007.3 999.1
03 26.06 З 2 20 км 10/10 600 м
[Cb cap]
+18.5 +12.5 68 +20 +20 1006.7 998.5
06 26.06 ЮЗ 1 10 км слабый ливневой дождь 10/10 600 м
[Cb cap]
+17.3 +14.6 84 +18 +18 1006.6 998.4
09 26.06 штиль 0 20 км 10 баллов +17.3 +15.3 88 +17 +17 1008.2 1000.0 +20.5 1
12 26.06 В 1 10 км 10 баллов +15.9 +14.4 91 +17 +17 1008.3 1000.0
15 26.06 СВ 1 10 км 10/10 600 м
[Cb cap]
+15.4 +13.8 90 +16 +16 1007.7 999.5
18 26.06 В 1 10 км 10/10 600 м
[Cb cap]
+14.7 +13.2 91 +15 +15 1008.0 999.7
21 26.06 СВ 1 20 км 6 баллов +17.0 +13.3 79 +18 +19 1009.5 1001.3 +14.5
00 27.06 С 3 20 км 4/4 600 м
[Cu med, cong]
+19.6 +14.5 72 +22 +28 комфорт 1009.2 1001.0
03 27.06 С 3 20 км 8/8 600 м
[Cb cap]
+22.5 +14.2 59 +26 +29 жарко 1009.0 1000.9
06 27.06 С 1 20 км 8/8 600 м
[Cb cap]
+23.7 +12.7 50 +26 +28 жарко 1008.9 1000.9
09 27.06 С 1 20 км 4 балла +23.3 +10.7 45 +25 +27 комфорт 1010.8 1002.7 +24.4
12 27.06 штиль 0 10 км 1/0
[Ac lent]
+14.5 +12.5 88 +14 +14 1010.4 1002.1
15 27.06 В 1 10 км ясно +11.1 +10.5 96 +11 +11 1011.0 1002.5
18 27.06 В 1 10 км ясно +9.4 +8.8 96 +9 +9 1011.0 1002.5

 

Местоположение метеостанции Георгиевка (Хабаровский край, Россия): широта 47.95 долгота 135.20 высота над уровнем моря 70 м.

В архиве по умолчанию представлена погода в Георгиевке за последнюю неделю. Архивные данные за месяц целиком и за предыдущие месяцы, начиная с января 2011 года, Вы можете получить, выбрав интересующий диапазон дат из раскрывающегося списка и нажав кнопку "Ввод!".

Внимание! Время в таблицах - всемирное. Для получения местного времени необходимо прибавить поправку, которая в Георгиевке равна 10 ч.

Смотрите также архив погоды в соседних городах и на ближайших метеорологических станциях:

Погода в Бичевой (Хабаровский край, Россия) (36 км)
Погода в Вяземском (Хабаровский край, Россия) (61 км)
Погода в Хабаровске Агромет (Хабаровский край, Россия) (64 км)
Погода в Хабаровске (Хабаровский край, Россия) (64 км)
Погода в Гвасюгах (Хабаровский край, Россия) (74 км)
Погода в Елабуге (Хабаровский край, Россия) (106 км)
Погода в Лермонтовке (Хабаровский край, Россия) (112 км)
Погода в Смидовиче (Еврейская автономная область, Россия) (126 км)
Погода в Литовко (Хабаровский край, Россия) (143 км)
Погода в Бикине (Хабаровский край, Россия) (148 км)

Пояснения к столбцам:

Ветер - указаны скорость ветра в м/с - средняя за 10 мин, порывы в срок и между сроками (в фигурных скобках) и направление, откуда дует ветер: С - северный, СВ - северо-восточный, В - восточный, ЮВ - юго-восточный, Ю - южный, ЮЗ - юго-западный, З - западный, СЗ - северо-западный.
Видимость - горизонтальная дальность видимости в метрах или километрах. При видимости от 1 до 10 км при отсутствии осадков обычно наблюдается дымка, при ухудшении видимости до 1 км и менее - туман. В сухую погоду видимость может ухудшаться дымом, пылью или мглою.
Явления - указаны атмосферные явления, наблюдавшиеся в срок или в последний час перед сроком; фигурными скобками обозначены явления, наблюдавшиеся между сроками (за 1-3 часа до срока); квадратными скобками обозначены град или гололедные отложения с указанием их диаметра в мм.
Облачность - указаны через наклонную черту общая и нижняя облачность в баллах и высота нижней границы облаков в метрах; квадратными скобками обозначены формы облаков: Ci - перистые, Cs - перисто-слоистые, Cc - перисто-кучевые, Ac - высококучевые, As - высокослоистые, Sc - слоисто-кучевые, Ns - слоисто-дождевые, Cu - кучевые, Cb - кучево-дождевые. Подробнее классификацию облаков см. в Атласе облаков (PDF).
T - Температура воздуха - температура, измеренная на высоте 2 м над землей.
Td - Температура точки росы - температура, при понижении до которой содержащийся в воздухе водяной пар достигнет насыщения.
f - Относительная влажность воздуха - влажноcть воздуха, измеренная на высоте 2 м над землей.
Te - Эффективная температура - температура, которую ощущает одетый по сезону человек в тени. Характеристика душности погоды. При расчете учитывается влияние влажности воздуха и скорости ветра на теплоощущения человека.
Tes - Эффективная температура на солнце - температура, которую ощущает человек, с поправкой на солнечный нагрев. Характеристика знойности погоды. Зависит от высоты солнца над горизонтом, облачности и скорости ветра. Ночью, в пасмурную погоду, а также при ветре 12 м/с и более поправка равна нулю.
P - Атмосферное давление - приведенное к уровню моря атмосферное давление.
Po - Атмосферное давление - измеренное на уровне метеостанции атмосферное давление.
Tmin - Минимальная температура - минимум температуры воздуха на высоте 2 м над землей.
Tmax - Максимальная температура - максимум температуры воздуха на высоте 2 м над землей.
R - Количество осадков - Количество выпавших осадков за период времени, мм. При наведении курсора мыши на число - период времени, за который выпало указанное количество осадков.
R24 - Количество осадков - Количество выпавших осадков за 24 часа, мм.
S - Снежный покров - Высота снежного покрова, см. При наведении курсора мыши на число - состояние снежного покрова и степень покрытия местности в баллах.